contact:dominique.lefevre@mio.osupytheas.fr, maurice.libes@osupytheas.fr, didier.mallarino@osupytheas.fr
Project:EMSO http://www.emso-fr.org/EMSO-France
Depth: 2436.0 m
Title:EMSO Ligure Ouest : Data MII capteur MICROCAT
DateTime_Computer,Latitude,Longitude,Temperature,Conductivity,Pressure,DateTime_Instrument
DateTime_Computer,Latitude,Longitude,degC,S m-1,dbar,DateTime_Instrument
2021-03-04T00:02:26Z,42.805,6.029,13.3006,4.60036,2470.007,2021-3-04T02:03:31Z
2021-03-04T00:05:29Z,42.805,6.029,13.3006,4.60048,2470.04,2021-3-04T02:06:34Z
2021-03-04T00:08:32Z,42.805,6.029,13.3000,4.60014,2470.04,2021-3-04T02:09:38Z
2021-03-04T00:11:35Z,42.805,6.029,13.2993,4.60026,2470.003,2021-3-04T02:12:41Z
2021-03-04T00:14:39Z,42.805,6.029,13.3011,4.60039,2470.04,2021-3-04T02:15:44Z
2021-03-04T00:17:42Z,42.805,6.029,13.3005,4.60034,2470.017,2021-3-04T02:18:47Z
2021-03-04T00:20:45Z,42.805,6.029,13.3008,4.60036,2470.017,2021-3-04T02:21:50Z
2021-03-04T00:23:48Z,42.805,6.029,13.3008,4.60049,2470.017,2021-3-04T02:24:53Z
2021-03-04T00:26:51Z,42.805,6.029,13.3015,4.60042,2470.017,2021-3-04T02:27:56Z
2021-03-04T00:29:54Z,42.805,6.029,13.3050,4.60055,2469.993,2021-3-04T02:30:59Z
2021-03-04T00:32:57Z,42.805,6.029,13.3021,4.60052,2470.04,2021-3-04T02:34:03Z
2021-03-04T00:36:00Z,42.805,6.029,13.3019,4.60060,2470.04,2021-3-04T02:37:06Z
2021-03-04T00:39:04Z,42.805,6.029,13.3036,4.60070,2470.03,2021-3-04T02:40:09Z
2021-03-04T00:42:07Z,42.805,6.029,13.3039,4.60060,2470.017,2021-3-04T02:43:12Z
2021-03-04T00:45:10Z,42.805,6.029,13.3034,4.60044,2469.993,2021-3-04T02:46:15Z
2021-03-04T00:48:13Z,42.805,6.029,13.3011,4.60036,2469.97,2021-3-04T02:49:18Z
2021-03-04T00:51:16Z,42.805,6.029,13.3009,4.60054,2470.007,2021-3-04T02:52:21Z
2021-03-04T00:54:19Z,42.805,6.029,13.3021,4.60068,2470.03,2021-3-04T02:55:24Z
2021-03-04T00:57:22Z,42.805,6.029,13.2993,4.60049,2470.007,2021-3-04T02:58:27Z
2021-03-04T01:00:25Z,42.805,6.029,13.3005,4.60011,2470.007,2021-3-04T03:01:31Z
2021-03-04T01:03:28Z,42.805,6.029,13.3004,4.60046,2470.007,2021-3-04T03:04:34Z
2021-03-04T01:06:32Z,42.805,6.029,13.3014,4.60057,2469.993,2021-3-04T03:07:37Z
2021-03-04T01:09:35Z,42.805,6.029,13.3018,4.60005,2469.993,2021-3-04T03:10:40Z
2021-03-04T01:12:38Z,42.805,6.029,13.3019,4.60044,2469.984,2021-3-04T03:13:43Z
2021-03-04T01:15:41Z,42.805,6.029,13.3040,4.60014,2469.97,2021-3-04T03:16:46Z
2021-03-04T01:18:44Z,42.805,6.029,13.2991,4.60032,2469.993,2021-3-04T03:19:49Z
2021-03-04T01:21:47Z,42.805,6.029,13.3027,4.60061,2469.984,2021-3-04T03:22:52Z
2021-03-04T01:24:50Z,42.805,6.029,13.3029,4.60029,2470.007,2021-3-04T03:25:56Z
2021-03-04T01:27:53Z,42.805,6.029,13.3035,4.60064,2469.984,2021-3-04T03:28:59Z
2021-03-04T01:30:57Z,42.805,6.029,13.3030,4.60072,2469.97,2021-3-04T03:32:02Z
2021-03-04T01:34:00Z,42.805,6.029,13.3036,4.60041,2469.984,2021-3-04T03:35:05Z
2021-03-04T01:37:03Z,42.805,6.029,13.3046,4.60029,2469.96,2021-3-04T03:38:08Z
2021-03-04T01:40:06Z,42.805,6.029,13.3020,4.60074,2470.007,2021-3-04T03:41:11Z
2021-03-04T01:43:09Z,42.805,6.029,13.3017,4.60077,2469.947,2021-3-04T03:44:14Z
2021-03-04T01:46:12Z,42.805,6.029,13.2998,4.60091,2469.97,2021-3-04T03:47:17Z
2021-03-04T01:49:15Z,42.805,6.029,13.3009,4.60069,2469.96,2021-3-04T03:50:20Z
2021-03-04T01:52:18Z,42.805,6.029,13.3033,4.60028,2469.947,2021-3-04T03:53:24Z
2021-03-04T01:55:22Z,42.805,6.029,13.2998,4.60049,2469.947,2021-3-04T03:56:27Z
2021-03-04T01:58:25Z,42.805,6.029,13.2990,4.60074,2469.984,2021-3-04T03:59:30Z
2021-03-04T02:01:28Z,42.805,6.029,13.3029,4.60000,2469.923,2021-3-04T04:02:33Z
2021-03-04T02:04:31Z,42.805,6.029,13.3017,4.59999,2469.947,2021-3-04T04:05:36Z
2021-03-04T02:07:34Z,42.805,6.029,13.3022,4.60013,2469.947,2021-3-04T04:08:39Z
2021-03-04T02:10:37Z,42.805,6.029,13.3031,4.60015,2469.914,2021-3-04T04:11:42Z
2021-03-04T02:13:40Z,42.805,6.029,13.3026,4.60071,2469.96,2021-3-04T04:14:45Z
2021-03-04T02:16:43Z,42.805,6.029,13.3008,4.60000,2469.96,2021-3-04T04:17:49Z
2021-03-04T02:19:46Z,42.805,6.029,13.2991,4.60014,2469.947,2021-3-04T04:20:52Z
2021-03-04T02:22:50Z,42.805,6.029,13.2993,4.60059,2469.923,2021-3-04T04:23:55Z
2021-03-04T02:25:53Z,42.805,6.029,13.2996,4.60067,2469.923,2021-3-04T04:26:58Z
2021-03-04T02:28:56Z,42.805,6.029,13.3019,4.60057,2469.937,2021-3-04T04:30:01Z
2021-03-04T02:31:59Z,42.805,6.029,13.3029,4.60042,2469.923,2021-3-04T04:33:04Z
2021-03-04T02:35:02Z,42.805,6.029,13.3024,4.60022,2469.9,2021-3-04T04:36:07Z
2021-03-04T02:38:05Z,42.805,6.029,13.3002,4.60056,2469.9,2021-3-04T04:39:10Z
2021-03-04T02:41:08Z,42.805,6.029,13.3010,4.60060,2469.947,2021-3-04T04:42:14Z
2021-03-04T02:44:11Z,42.805,6.029,13.3023,4.60045,2469.923,2021-3-04T04:45:17Z
2021-03-04T02:47:15Z,42.805,6.029,13.3027,4.60022,2469.9,2021-3-04T04:48:20Z
2021-03-04T02:50:18Z,42.805,6.029,13.3017,4.60033,2469.937,2021-3-04T04:51:23Z
2021-03-04T02:53:21Z,42.805,6.029,13.3009,4.60044,2469.914,2021-3-04T04:54:26Z
2021-03-04T02:56:24Z,42.805,6.029,13.3026,4.59998,2469.937,2021-3-04T04:57:29Z
2021-03-04T02:59:27Z,42.805,6.029,13.3017,4.60024,2469.876,2021-3-04T05:00:32Z
2021-03-04T03:02:30Z,42.805,6.029,13.2997,4.60055,2469.914,2021-3-04T05:03:35Z
2021-03-04T03:05:33Z,42.805,6.029,13.3015,4.60031,2469.937,2021-3-04T05:06:38Z
2021-03-04T03:08:36Z,42.805,6.029,13.3038,4.60020,2469.9,2021-3-04T05:09:42Z
2021-03-04T03:11:39Z,42.805,6.029,13.3012,4.60049,2469.9,2021-3-04T05:12:45Z
2021-03-04T03:14:43Z,42.805,6.029,13.2998,4.60045,2469.914,2021-3-04T05:15:48Z
2021-03-04T03:17:46Z,42.805,6.029,13.3005,4.60036,2469.89,2021-3-04T05:18:51Z
2021-03-04T03:20:49Z,42.805,6.029,13.3010,4.60025,2469.9,2021-3-04T05:21:54Z
2021-03-04T03:23:52Z,42.805,6.029,13.3000,4.60062,2469.914,2021-3-04T05:24:57Z
2021-03-04T03:26:55Z,42.805,6.029,13.3008,4.60002,2469.853,2021-3-04T05:28:00Z
2021-03-04T03:29:58Z,42.805,6.029,13.3054,4.59999,2469.876,2021-3-04T05:31:03Z
2021-03-04T03:33:01Z,42.805,6.029,13.3022,4.60014,2469.89,2021-3-04T05:34:06Z
2021-03-04T03:36:04Z,42.805,6.029,13.3008,4.60034,2469.863,2021-3-04T05:37:10Z
2021-03-04T03:39:07Z,42.805,6.029,13.3035,4.60025,2469.9,2021-3-04T05:40:13Z
2021-03-04T03:42:11Z,42.805,6.029,13.3028,4.60004,2469.867,2021-3-04T05:43:16Z
2021-03-04T03:45:14Z,42.805,6.029,13.3020,4.60041,2469.867,2021-3-04T05:46:19Z
2021-03-04T03:48:17Z,42.805,6.029,13.2999,4.60068,2469.867,2021-3-04T05:49:22Z
2021-03-04T03:51:20Z,42.805,6.029,13.3023,4.60026,2469.9,2021-3-04T05:52:25Z
2021-03-04T03:54:23Z,42.805,6.029,13.3024,4.60060,2469.853,2021-3-04T05:55:28Z
2021-03-04T03:57:26Z,42.805,6.029,13.3011,4.60087,2469.867,2021-3-04T05:58:31Z
2021-03-04T04:00:29Z,42.805,6.029,13.3026,4.60014,2469.844,2021-3-04T06:01:35Z
2021-03-04T04:03:32Z,42.805,6.029,13.3009,4.60027,2469.83,2021-3-04T06:04:38Z
2021-03-04T04:06:35Z,42.805,6.029,13.3011,4.60022,2469.83,2021-3-04T06:07:41Z
2021-03-04T04:09:39Z,42.805,6.029,13.3000,4.60022,2469.867,2021-3-04T06:10:44Z
2021-03-04T04:12:42Z,42.805,6.029,13.3011,4.60013,2469.853,2021-3-04T06:13:47Z
2021-03-04T04:15:45Z,42.805,6.029,13.3014,4.60023,2469.876,2021-3-04T06:16:50Z
2021-03-04T04:18:48Z,42.805,6.029,13.3012,4.60014,2469.876,2021-3-04T06:19:53Z
2021-03-04T04:21:51Z,42.805,6.029,13.3004,4.60044,2469.867,2021-3-04T06:22:56Z
2021-03-04T04:24:54Z,42.805,6.029,13.2999,4.60037,2469.867,2021-3-04T06:25:59Z
2021-03-04T04:27:57Z,42.805,6.029,13.3020,4.60019,2469.89,2021-3-04T06:29:03Z
2021-03-04T04:31:00Z,42.805,6.029,13.3000,4.60039,2469.89,2021-3-04T06:32:06Z
2021-03-04T04:34:04Z,42.805,6.029,13.3015,4.60013,2469.806,2021-3-04T06:35:09Z
2021-03-04T04:37:07Z,42.805,6.029,13.3021,4.60021,2469.797,2021-3-04T06:38:12Z
2021-03-04T04:40:10Z,42.805,6.029,13.3015,4.60046,2469.844,2021-3-04T06:41:15Z
2021-03-04T04:43:13Z,42.805,6.029,13.3019,4.60060,2469.806,2021-3-04T06:44:18Z
2021-03-04T04:46:16Z,42.805,6.029,13.3029,4.60082,2469.844,2021-3-04T06:47:21Z
2021-03-04T04:49:19Z,42.805,6.029,13.3021,4.60047,2469.853,2021-3-04T06:50:24Z
2021-03-04T04:52:22Z,42.805,6.029,13.3033,4.60024,2469.83,2021-3-04T06:53:28Z
2021-03-04T04:55:25Z,42.805,6.029,13.3031,4.60014,2469.83,2021-3-04T06:56:31Z
2021-03-04T04:58:29Z,42.805,6.029,13.3036,4.60046,2469.844,2021-3-04T06:59:34Z
2021-03-04T05:01:32Z,42.805,6.029,13.3003,4.60049,2469.867,2021-3-04T07:02:37Z
2021-03-04T05:04:35Z,42.805,6.029,13.3011,4.60029,2469.867,2021-3-04T07:05:40Z
2021-03-04T05:07:38Z,42.805,6.029,13.3039,4.60019,2469.806,2021-3-04T07:08:43Z
2021-03-04T05:10:41Z,42.805,6.029,13.3087,4.60001,2469.844,2021-3-04T07:11:46Z
2021-03-04T05:13:44Z,42.805,6.029,13.2998,4.60014,2469.867,2021-3-04T07:14:49Z
2021-03-04T05:16:47Z,42.805,6.029,13.2999,4.60074,2469.806,2021-3-04T07:17:53Z
2021-03-04T05:19:50Z,42.805,6.029,13.2999,4.60037,2469.844,2021-3-04T07:20:56Z
2021-03-04T05:22:53Z,42.805,6.029,13.2997,4.60022,2469.844,2021-3-04T07:23:59Z
2021-03-04T05:25:57Z,42.805,6.029,13.3015,4.60011,2469.844,2021-3-04T07:27:02Z
2021-03-04T05:29:00Z,42.805,6.029,13.3021,4.60013,2469.844,2021-3-04T07:30:05Z
2021-03-04T05:32:03Z,42.805,6.029,13.3031,4.60025,2469.806,2021-3-04T07:33:08Z
2021-03-04T05:35:06Z,42.805,6.029,13.3065,4.60011,2469.83,2021-3-04T07:36:11Z
2021-03-04T05:38:09Z,42.805,6.029,13.3073,4.60036,2469.844,2021-3-04T07:39:14Z
2021-03-04T05:41:12Z,42.805,6.029,13.3063,4.60009,2469.844,2021-3-04T07:42:17Z
2021-03-04T05:44:15Z,42.805,6.029,13.3065,4.60005,2469.83,2021-3-04T07:45:21Z
2021-03-04T05:47:18Z,42.805,6.029,13.3084,4.60021,2469.83,2021-3-04T07:48:24Z
2021-03-04T05:50:22Z,42.805,6.029,13.3059,4.60008,2469.844,2021-3-04T07:51:27Z
2021-03-04T05:53:25Z,42.805,6.029,13.3036,4.60014,2469.867,2021-3-04T07:54:30Z
2021-03-04T05:56:28Z,42.805,6.029,13.3030,4.60016,2469.821,2021-3-04T07:57:33Z
2021-03-04T05:59:31Z,42.805,6.029,13.3016,4.60005,2469.844,2021-3-04T08:00:36Z
2021-03-04T06:02:34Z,42.805,6.029,13.3030,4.60016,2469.821,2021-3-04T08:03:39Z
2021-03-04T06:05:37Z,42.805,6.029,13.3004,4.60026,2469.83,2021-3-04T08:06:42Z
2021-03-04T06:08:40Z,42.805,6.029,13.3000,4.60064,2469.853,2021-3-04T08:09:46Z
2021-03-04T06:11:43Z,42.805,6.029,13.3065,4.60072,2469.83,2021-3-04T08:12:49Z
2021-03-04T06:14:47Z,42.805,6.029,13.3031,4.60033,2469.806,2021-3-04T08:15:52Z
2021-03-04T06:17:50Z,42.805,6.029,13.3039,4.60024,2469.844,2021-3-04T08:18:55Z
2021-03-04T06:20:53Z,42.805,6.029,13.3026,4.60033,2469.821,2021-3-04T08:21:58Z
2021-03-04T06:23:56Z,42.805,6.029,13.3034,4.60011,2469.821,2021-3-04T08:25:01Z
2021-03-04T06:26:59Z,42.805,6.029,13.3055,4.60003,2469.853,2021-3-04T08:28:04Z
2021-03-04T06:30:02Z,42.805,6.029,13.3024,4.60011,2469.844,2021-3-04T08:31:07Z
2021-03-04T06:33:05Z,42.805,6.029,13.3035,4.60046,2469.844,2021-3-04T08:34:10Z
2021-03-04T06:36:08Z,42.805,6.029,13.3047,4.60084,2469.853,2021-3-04T08:37:14Z
2021-03-04T06:39:11Z,42.805,6.029,13.3025,4.60069,2469.89,2021-3-04T08:40:17Z
2021-03-04T06:42:15Z,42.805,6.029,13.3037,4.60062,2469.844,2021-3-04T08:43:20Z
2021-03-04T06:45:18Z,42.805,6.029,13.3043,4.60049,2469.853,2021-3-04T08:46:23Z
2021-03-04T06:48:21Z,42.805,6.029,13.3034,4.60050,2469.876,2021-3-04T08:49:26Z
2021-03-04T06:51:24Z,42.805,6.029,13.3029,4.60075,2469.844,2021-3-04T08:52:29Z
2021-03-04T06:54:27Z,42.805,6.029,13.3022,4.60055,2469.914,2021-3-04T08:55:32Z
2021-03-04T06:57:30Z,42.805,6.029,13.3030,4.60023,2469.83,2021-3-04T08:58:35Z
2021-03-04T07:00:33Z,42.805,6.029,13.3031,4.60031,2469.853,2021-3-04T09:01:39Z
2021-03-04T07:03:36Z,42.805,6.029,13.3010,4.60098,2469.853,2021-3-04T09:04:42Z
2021-03-04T07:06:40Z,42.805,6.029,13.3018,4.60092,2469.876,2021-3-04T09:07:45Z
2021-03-04T07:09:43Z,42.805,6.029,13.3046,4.60100,2469.853,2021-3-04T09:10:48Z
2021-03-04T07:12:46Z,42.805,6.029,13.3035,4.60086,2469.876,2021-3-04T09:13:51Z
2021-03-04T07:15:49Z,42.805,6.029,13.3054,4.60032,2469.9,2021-3-04T09:16:54Z
2021-03-04T07:18:52Z,42.805,6.029,13.3053,4.60039,2469.867,2021-3-04T09:19:57Z
2021-03-04T07:21:55Z,42.805,6.029,13.3064,4.60019,2469.89,2021-3-04T09:23:00Z
2021-03-04T07:24:58Z,42.805,6.029,13.3061,4.60055,2469.89,2021-3-04T09:26:03Z
2021-03-04T07:28:01Z,42.805,6.029,13.3061,4.60046,2469.876,2021-3-04T09:29:07Z
2021-03-04T07:31:04Z,42.805,6.029,13.3068,4.60050,2469.9,2021-3-04T09:32:10Z
2021-03-04T07:34:08Z,42.805,6.029,13.3016,4.60052,2469.89,2021-3-04T09:35:13Z
2021-03-04T07:37:11Z,42.805,6.029,13.3054,4.60057,2469.914,2021-3-04T09:38:16Z
2021-03-04T07:40:14Z,42.805,6.029,13.3033,4.60046,2469.89,2021-3-04T09:41:19Z
2021-03-04T07:43:17Z,42.805,6.029,13.3029,4.60094,2469.9,2021-3-04T09:44:22Z
2021-03-04T07:46:20Z,42.805,6.029,13.3043,4.60084,2469.89,2021-3-04T09:47:25Z
2021-03-04T07:49:23Z,42.805,6.029,13.3056,4.60054,2469.89,2021-3-04T09:50:28Z
2021-03-04T07:52:26Z,42.805,6.029,13.3039,4.60057,2469.9,2021-3-04T09:53:32Z
2021-03-04T07:55:29Z,42.805,6.029,13.3061,4.60031,2469.89,2021-3-04T09:56:35Z
2021-03-04T07:58:33Z,42.805,6.029,13.3031,4.60041,2469.923,2021-3-04T09:59:38Z
2021-03-04T08:01:36Z,42.805,6.029,13.3059,4.60043,2469.89,2021-3-04T10:02:41Z
2021-03-04T08:04:39Z,42.805,6.029,13.3026,4.60021,2469.947,2021-3-04T10:05:44Z
2021-03-04T08:07:42Z,42.805,6.029,13.3053,4.60016,2469.96,2021-3-04T10:08:47Z
2021-03-04T08:10:45Z,42.805,6.029,13.3043,4.60019,2469.937,2021-3-04T10:11:50Z
2021-03-04T08:13:48Z,42.805,6.029,13.3053,4.60029,2469.923,2021-3-04T10:14:53Z
2021-03-04T08:16:51Z,42.805,6.029,13.3046,4.60033,2469.96,2021-3-04T10:17:57Z
2021-03-04T08:19:54Z,42.805,6.029,13.3032,4.60035,2469.923,2021-3-04T10:21:00Z
2021-03-04T08:22:58Z,42.805,6.029,13.3024,4.60072,2469.984,2021-3-04T10:24:03Z
2021-03-04T08:26:01Z,42.805,6.029,13.3023,4.60063,2469.947,2021-3-04T10:27:06Z
2021-03-04T08:29:04Z,42.805,6.029,13.3067,4.60051,2469.96,2021-3-04T10:30:09Z
2021-03-04T08:32:07Z,42.805,6.029,13.3035,4.60046,2469.984,2021-3-04T10:33:12Z
2021-03-04T08:35:10Z,42.805,6.029,13.3037,4.60039,2469.97,2021-3-04T10:36:15Z
2021-03-04T08:38:13Z,42.805,6.029,13.3015,4.60026,2469.984,2021-3-04T10:39:18Z
2021-03-04T08:41:16Z,42.805,6.029,13.3031,4.60021,2469.96,2021-3-04T10:42:22Z
2021-03-04T08:44:19Z,42.805,6.029,13.3036,4.60014,2470.007,2021-3-04T10:45:25Z
2021-03-04T08:47:23Z,42.805,6.029,13.3035,4.60009,2470.007,2021-3-04T10:48:28Z
2021-03-04T08:50:26Z,42.805,6.029,13.3026,4.60032,2469.97,2021-3-04T10:51:31Z
2021-03-04T08:53:29Z,42.805,6.029,13.3031,4.60046,2469.984,2021-3-04T10:54:34Z
2021-03-04T08:56:32Z,42.805,6.029,13.3006,4.60021,2469.97,2021-3-04T10:57:37Z
2021-03-04T08:59:35Z,42.805,6.029,13.3016,4.60055,2469.984,2021-3-04T11:00:40Z
2021-03-04T09:02:38Z,42.805,6.029,13.3018,4.60039,2469.97,2021-3-04T11:03:43Z
2021-03-04T09:05:41Z,42.805,6.029,13.3029,4.60077,2469.97,2021-3-04T11:06:47Z
2021-03-04T09:08:44Z,42.805,6.029,13.3019,4.60089,2469.97,2021-3-04T11:09:50Z
2021-03-04T09:11:48Z,42.805,6.029,13.3018,4.60095,2470.017,2021-3-04T11:12:53Z
2021-03-04T09:14:51Z,42.805,6.029,13.3019,4.60069,2469.96,2021-3-04T11:15:56Z
2021-03-04T09:17:54Z,42.805,6.029,13.3019,4.60113,2469.993,2021-3-04T11:18:59Z
2021-03-04T09:20:57Z,42.805,6.029,13.3015,4.60054,2469.993,2021-3-04T11:22:02Z
2021-03-04T09:24:00Z,42.805,6.029,13.3001,4.60079,2469.97,2021-3-04T11:25:05Z
2021-03-04T09:27:03Z,42.805,6.029,13.3000,4.60087,2469.993,2021-3-04T11:28:08Z
2021-03-04T09:30:06Z,42.805,6.029,13.3019,4.60077,2469.993,2021-3-04T11:31:12Z
2021-03-04T09:33:09Z,42.805,6.029,13.3015,4.60060,2469.993,2021-3-04T11:34:15Z
2021-03-04T09:36:13Z,42.805,6.029,13.3014,4.60056,2469.97,2021-3-04T11:37:18Z
2021-03-04T09:39:16Z,42.805,6.029,13.3031,4.60052,2469.97,2021-3-04T11:40:21Z
2021-03-04T09:42:19Z,42.805,6.029,13.3009,4.60044,2470.017,2021-3-04T11:43:24Z
2021-03-04T09:45:22Z,42.805,6.029,13.3006,4.60073,2469.993,2021-3-04T11:46:27Z
2021-03-04T09:48:25Z,42.805,6.029,13.3048,4.60065,2470.007,2021-3-04T11:49:30Z
2021-03-04T09:51:28Z,42.805,6.029,13.3048,4.60049,2469.97,2021-3-04T11:52:33Z
2021-03-04T09:54:31Z,42.805,6.029,13.3015,4.60078,2470.007,2021-3-04T11:55:37Z
2021-03-04T09:57:34Z,42.805,6.029,13.3022,4.60062,2470.007,2021-3-04T11:58:40Z
2021-03-04T10:00:38Z,42.805,6.029,13.3048,4.60067,2469.97,2021-3-04T12:01:43Z
2021-03-04T10:03:41Z,42.805,6.029,13.3061,4.60053,2469.984,2021-3-04T12:04:46Z
2021-03-04T10:06:44Z,42.805,6.029,13.3033,4.60031,2470.007,2021-3-04T12:07:49Z
2021-03-04T10:09:47Z,42.805,6.029,13.3046,4.60037,2469.97,2021-3-04T12:10:52Z
2021-03-04T10:12:50Z,42.805,6.029,13.3026,4.60031,2470.007,2021-3-04T12:13:55Z
2021-03-04T10:15:53Z,42.805,6.029,13.3033,4.60050,2469.96,2021-3-04T12:16:58Z
2021-03-04T10:18:56Z,42.805,6.029,13.3028,4.60055,2469.984,2021-3-04T12:20:02Z
2021-03-04T10:21:59Z,42.805,6.029,13.3054,4.60025,2469.97,2021-3-04T12:23:05Z
2021-03-04T10:25:02Z,42.805,6.029,13.3028,4.60031,2470.007,2021-3-04T12:26:08Z
2021-03-04T10:28:06Z,42.805,6.029,13.3026,4.60059,2469.97,2021-3-04T12:29:11Z
2021-03-04T10:31:09Z,42.805,6.029,13.3046,4.60061,2470.007,2021-3-04T12:32:14Z
2021-03-04T10:34:12Z,42.805,6.029,13.3021,4.60039,2470.03,2021-3-04T12:35:17Z
2021-03-04T10:37:15Z,42.805,6.029,13.3042,4.60087,2470.03,2021-3-04T12:38:20Z
2021-03-04T10:40:18Z,42.805,6.029,13.3004,4.60067,2470.007,2021-3-04T12:41:23Z
2021-03-04T10:43:21Z,42.805,6.029,13.3015,4.60054,2470.03,2021-3-04T12:44:26Z
2021-03-04T10:46:24Z,42.805,6.029,13.3011,4.60021,2470.007,2021-3-04T12:47:30Z
2021-03-04T10:49:27Z,42.805,6.029,13.3023,4.60036,2469.993,2021-3-04T12:50:33Z
2021-03-04T10:52:31Z,42.805,6.029,13.3021,4.60028,2469.984,2021-3-04T12:53:36Z
2021-03-04T10:55:34Z,42.805,6.029,13.3010,4.60024,2469.984,2021-3-04T12:56:39Z
2021-03-04T10:58:37Z,42.805,6.029,13.3004,4.60032,2469.993,2021-3-04T12:59:42Z
2021-03-04T11:01:40Z,42.805,6.029,13.3028,4.60023,2469.984,2021-3-04T13:02:45Z
2021-03-04T11:04:43Z,42.805,6.029,13.3065,4.60044,2470.007,2021-3-04T13:05:48Z
2021-03-04T11:07:46Z,42.805,6.029,13.3051,4.60050,2469.97,2021-3-04T13:08:51Z
2021-03-04T11:10:49Z,42.805,6.029,13.3036,4.60069,2469.984,2021-3-04T13:11:55Z
2021-03-04T11:13:52Z,42.805,6.029,13.3010,4.60103,2469.984,2021-3-04T13:14:58Z
2021-03-04T11:16:56Z,42.805,6.029,13.3018,4.60063,2470.007,2021-3-04T13:18:01Z
2021-03-04T11:19:59Z,42.805,6.029,13.3022,4.60069,2469.97,2021-3-04T13:21:04Z
2021-03-04T11:23:02Z,42.805,6.029,13.3018,4.60041,2469.97,2021-3-04T13:24:07Z
2021-03-04T11:26:05Z,42.805,6.029,13.3045,4.60030,2470.007,2021-3-04T13:27:10Z
2021-03-04T11:29:08Z,42.805,6.029,13.3046,4.60052,2469.97,2021-3-04T13:30:13Z
2021-03-04T11:32:11Z,42.805,6.029,13.3042,4.60059,2469.947,2021-3-04T13:33:16Z
2021-03-04T11:35:14Z,42.805,6.029,13.3038,4.60079,2469.984,2021-3-04T13:36:20Z
2021-03-04T11:38:17Z,42.805,6.029,13.3034,4.60074,2469.984,2021-3-04T13:39:23Z
2021-03-04T11:41:21Z,42.805,6.029,13.3048,4.60101,2469.97,2021-3-04T13:42:26Z
2021-03-04T11:44:24Z,42.805,6.029,13.3009,4.60091,2469.984,2021-3-04T13:45:29Z
2021-03-04T11:47:27Z,42.805,6.029,13.3023,4.60084,2469.96,2021-3-04T13:48:32Z
2021-03-04T11:50:30Z,42.805,6.029,13.3051,4.60039,2469.947,2021-3-04T13:51:35Z
2021-03-04T11:53:33Z,42.805,6.029,13.3034,4.60044,2469.947,2021-3-04T13:54:38Z
2021-03-04T11:56:36Z,42.805,6.029,13.3014,4.60067,2469.97,2021-3-04T13:57:41Z
2021-03-04T11:59:39Z,42.805,6.029,13.3031,4.60064,2469.984,2021-3-04T14:00:45Z
2021-03-04T12:02:42Z,42.805,6.029,13.3043,4.60067,2469.984,2021-3-04T14:03:48Z
2021-03-04T12:05:46Z,42.805,6.029,13.3053,4.60052,2469.97,2021-3-04T14:06:51Z
2021-03-04T12:08:49Z,42.805,6.029,13.3052,4.60032,2469.97,2021-3-04T14:09:54Z
2021-03-04T12:11:52Z,42.805,6.029,13.3059,4.60006,2469.984,2021-3-04T14:12:57Z
2021-03-04T12:14:55Z,42.805,6.029,13.3082,4.60004,2469.937,2021-3-04T14:16:00Z
2021-03-04T12:17:58Z,42.805,6.029,13.3055,4.60008,2469.96,2021-3-04T14:19:03Z
2021-03-04T12:21:01Z,42.805,6.029,13.3060,4.60011,2469.923,2021-3-04T14:22:06Z
2021-03-04T12:24:04Z,42.805,6.029,13.3054,4.60027,2469.947,2021-3-04T14:25:10Z
2021-03-04T12:27:07Z,42.805,6.029,13.3054,4.60030,2469.96,2021-3-04T14:28:13Z
2021-03-04T12:30:11Z,42.805,6.029,13.3036,4.60045,2469.96,2021-3-04T14:31:16Z
2021-03-04T12:33:14Z,42.805,6.029,13.3015,4.60014,2469.923,2021-3-04T14:34:19Z
2021-03-04T12:36:17Z,42.805,6.029,13.3014,4.60017,2469.947,2021-3-04T14:37:22Z
2021-03-04T12:39:20Z,42.805,6.029,13.3017,4.60029,2469.96,2021-3-04T14:40:25Z
2021-03-04T12:42:23Z,42.805,6.029,13.3032,4.60018,2469.923,2021-3-04T14:43:28Z
2021-03-04T12:45:26Z,42.805,6.029,13.3040,4.60023,2469.96,2021-3-04T14:46:31Z
2021-03-04T12:48:29Z,42.805,6.029,13.3027,4.60026,2469.914,2021-3-04T14:49:35Z
2021-03-04T12:51:32Z,42.805,6.029,13.3036,4.60039,2469.923,2021-3-04T14:52:38Z
2021-03-04T12:54:36Z,42.805,6.029,13.3046,4.60069,2469.937,2021-3-04T14:55:41Z
2021-03-04T12:57:39Z,42.805,6.029,13.3048,4.60053,2469.89,2021-3-04T14:58:44Z
2021-03-04T13:00:42Z,42.805,6.029,13.3043,4.60084,2469.947,2021-3-04T15:01:47Z
2021-03-04T13:03:45Z,42.805,6.029,13.3015,4.60072,2469.937,2021-3-04T15:04:50Z
2021-03-04T13:06:48Z,42.805,6.029,13.3039,4.60064,2469.9,2021-3-04T15:07:53Z
2021-03-04T13:09:51Z,42.805,6.029,13.3047,4.60067,2469.937,2021-3-04T15:10:56Z
2021-03-04T13:12:54Z,42.805,6.029,13.3025,4.60027,2469.914,2021-3-04T15:14:00Z
2021-03-04T13:15:57Z,42.805,6.029,13.3035,4.60058,2469.9,2021-3-04T15:17:03Z
2021-03-04T13:19:01Z,42.805,6.029,13.3050,4.60063,2469.89,2021-3-04T15:20:06Z
2021-03-04T13:22:04Z,42.805,6.029,13.3067,4.60062,2469.89,2021-3-04T15:23:09Z
2021-03-04T13:25:07Z,42.805,6.029,13.3061,4.60063,2469.914,2021-3-04T15:26:12Z
2021-03-04T13:28:10Z,42.805,6.029,13.3034,4.60064,2469.914,2021-3-04T15:29:15Z
2021-03-04T13:31:13Z,42.805,6.029,13.3024,4.60045,2469.909,2021-3-04T15:32:18Z
2021-03-04T13:34:16Z,42.805,6.029,13.3051,4.60056,2469.876,2021-3-04T15:35:21Z
2021-03-04T13:37:19Z,42.805,6.029,13.3063,4.60052,2469.89,2021-3-04T15:38:25Z
2021-03-04T13:40:22Z,42.805,6.029,13.3062,4.60053,2469.89,2021-3-04T15:41:28Z
2021-03-04T13:43:26Z,42.805,6.029,13.3048,4.60049,2469.89,2021-3-04T15:44:31Z
2021-03-04T13:46:29Z,42.805,6.029,13.3026,4.60034,2469.914,2021-3-04T15:47:34Z
2021-03-04T13:49:32Z,42.805,6.029,13.3046,4.60062,2469.914,2021-3-04T15:50:37Z
2021-03-04T13:52:35Z,42.805,6.029,13.3051,4.60049,2469.9,2021-3-04T15:53:40Z
2021-03-04T13:55:38Z,42.805,6.029,13.3058,4.60037,2469.9,2021-3-04T15:56:43Z
2021-03-04T13:58:41Z,42.805,6.029,13.3058,4.60076,2469.914,2021-3-04T15:59:46Z
2021-03-04T14:01:44Z,42.805,6.029,13.3061,4.60064,2469.914,2021-3-04T16:02:50Z
2021-03-04T14:04:47Z,42.805,6.029,13.3047,4.60054,2469.914,2021-3-04T16:05:53Z
2021-03-04T14:07:51Z,42.805,6.029,13.3050,4.60093,2469.876,2021-3-04T16:08:56Z
2021-03-04T14:10:54Z,42.805,6.029,13.3057,4.60069,2469.867,2021-3-04T16:11:59Z
2021-03-04T14:13:57Z,42.805,6.029,13.3059,4.60052,2469.89,2021-3-04T16:15:02Z
2021-03-04T14:17:00Z,42.805,6.029,13.3063,4.60070,2469.853,2021-3-04T16:18:05Z
2021-03-04T14:20:03Z,42.805,6.029,13.3035,4.60072,2469.89,2021-3-04T16:21:08Z
2021-03-04T14:23:06Z,42.805,6.029,13.3031,4.60061,2469.89,2021-3-04T16:24:11Z
2021-03-04T14:26:09Z,42.805,6.029,13.3031,4.60038,2469.89,2021-3-04T16:27:15Z
2021-03-04T14:29:12Z,42.805,6.029,13.3037,4.60046,2469.89,2021-3-04T16:30:18Z
2021-03-04T14:32:16Z,42.805,6.029,13.3046,4.60054,2469.853,2021-3-04T16:33:21Z
2021-03-04T14:35:19Z,42.805,6.029,13.3045,4.60098,2469.853,2021-3-04T16:36:24Z
2021-03-04T14:38:22Z,42.805,6.029,13.3046,4.60080,2469.867,2021-3-04T16:39:27Z
2021-03-04T14:41:25Z,42.805,6.029,13.3029,4.60075,2469.853,2021-3-04T16:42:30Z
2021-03-04T14:44:28Z,42.805,6.029,13.3037,4.60087,2469.89,2021-3-04T16:45:33Z
2021-03-04T14:47:31Z,42.805,6.029,13.3040,4.60069,2469.89,2021-3-04T16:48:36Z
2021-03-04T14:50:34Z,42.805,6.029,13.3048,4.60066,2469.867,2021-3-04T16:51:40Z
2021-03-04T14:53:37Z,42.805,6.029,13.3056,4.60035,2469.89,2021-3-04T16:54:43Z
2021-03-04T14:56:41Z,42.805,6.029,13.3061,4.60036,2469.876,2021-3-04T16:57:46Z
2021-03-04T14:59:44Z,42.805,6.029,13.3025,4.60072,2469.844,2021-3-04T17:00:49Z
2021-03-04T15:02:47Z,42.805,6.029,13.3021,4.60087,2469.89,2021-3-04T17:03:52Z
2021-03-04T15:05:50Z,42.805,6.029,13.3016,4.60090,2469.853,2021-3-04T17:06:55Z
2021-03-04T15:08:53Z,42.805,6.029,13.3051,4.60062,2469.844,2021-3-04T17:09:58Z
2021-03-04T15:11:56Z,42.805,6.029,13.3047,4.60079,2469.844,2021-3-04T17:13:01Z
2021-03-04T15:14:59Z,42.805,6.029,13.3041,4.60040,2469.83,2021-3-04T17:16:05Z